Groton, CT

10:42 AM EDT on July 20, 2017 (GMT -0400)
Groton-New London

Weather History for KGON - November, 2013

Change the Weather History Date:

Thursday, November 28, 2013

  Actual Average Record
Temperature  
Mean Temperature 32 °F -  
Max Temperature 39 °F 51 °F 66 °F (1984)
Min Temperature 25 °F 34 °F 18 °F (1982)
Degree Days  
Heating Degree Days 33    
Moisture  
Dew Point 16 °F    
Average Humidity 52    
Maximum Humidity 66    
Minimum Humidity 34    
Precipitation  
Precipitation 0.00 in - - ()
Sea Level Pressure  
Sea Level Pressure 30.14 in    
Wind  
Wind Speed 15 mph (NW)    
Max Wind Speed 22 mph    
Max Gust Speed 30 mph    
Visibility 10 miles    
Events      
Averages and records for this station are not official NWS values.
T = Trace of Precipitation, MM = Missing Value Source: NWS Daily Summary

Daily Weather History Graph

Daily Weather History Graph

Search for Another Location

Airport or City:

Trip Planner

Search our weather history database for the weather conditions in past years. The results will help you decide how hot, cold, wet, or windy it might be!

Date:

Astronomy

Nov. 28, 2013 Rise Set
Actual Time 6:51 AM EST 4:20 PM EST
Civil Twilight 6:21 AM EST 4:51 PM EST
Nautical Twilight 5:46 AM EST 5:25 PM EST
Astronomical Twilight 5:13 AM EST 5:58 PM EST
Moon 1:48 AM EST (11/28) 1:30 PM EST (11/28)
Length of Visible Light 10h 30m
Length of Day
9h 28m
Waning Crescent, 22% of the Moon is Illuminated
Nov 28
Waning Crescent
Dec 2
New
Dec 9
First Quarter
Dec 17
Full
Dec 25
Last Quarter

Hourly Weather History & Observations

Time (EST) Temp. Windchill Dew Point Humidity Pressure Visibility Wind Dir Wind Speed Gust Speed Precip Events Conditions
12:56 AM 39.0 °F 28.8 °F 28.0 °F 65% 29.62 in 10.0 mi WNW 21.9 mph 29.9 mph N/A   Overcast
1:56 AM 37.0 °F 29.3 °F 26.1 °F 65% 29.68 in 10.0 mi WNW 11.5 mph - N/A   Mostly Cloudy
2:56 AM 36.0 °F 26.3 °F 25.0 °F 64% 29.73 in 10.0 mi WNW 16.1 mph 24.2 mph N/A   Overcast
3:56 AM 35.1 °F 25.5 °F 24.1 °F 64% 29.78 in 10.0 mi West 15.0 mph - N/A   Mostly Cloudy
4:56 AM 34.0 °F 24.2 °F 21.9 °F 61% 29.84 in 10.0 mi West 15.0 mph - N/A   Overcast
5:56 AM 34.0 °F 24.2 °F 19.9 °F 56% 29.91 in 10.0 mi WNW 15.0 mph 21.9 mph N/A   Overcast
6:56 AM 32.0 °F 21.6 °F 18.0 °F 56% 29.98 in 10.0 mi West 15.0 mph 23.0 mph N/A   Mostly Cloudy
7:56 AM 32.0 °F 21.2 °F 18.0 °F 56% 30.04 in 10.0 mi WNW 16.1 mph 21.9 mph N/A   Scattered Clouds
8:56 AM 33.1 °F 21.5 °F 17.1 °F 52% 30.08 in 10.0 mi WNW 19.6 mph 28.8 mph N/A   Clear
9:56 AM 35.1 °F 24.5 °F 16.0 °F 46% 30.11 in 10.0 mi WNW 18.4 mph 27.6 mph N/A   Clear
10:56 AM 36.0 °F 25.3 °F 16.0 °F 44% 30.13 in 10.0 mi WNW 19.6 mph 26.5 mph N/A   Clear
11:56 AM 36.0 °F 25.0 °F 15.1 °F 43% 30.14 in 10.0 mi NW 20.7 mph 29.9 mph N/A   Clear
12:56 PM 36.0 °F 26.0 °F 12.0 °F 37% 30.17 in 10.0 mi NW 17.3 mph 26.5 mph N/A   Clear
1:56 PM 36.0 °F 26.3 °F 10.0 °F 34% 30.20 in 10.0 mi NNW 16.1 mph 24.2 mph N/A   Clear
2:56 PM 34.0 °F 24.6 °F 8.1 °F 34% 30.24 in 10.0 mi NW 13.8 mph - N/A   Clear
3:56 PM 32.0 °F 23.0 °F 9.0 °F 38% 30.28 in 10.0 mi NNW 11.5 mph 19.6 mph N/A   Clear
4:56 PM 30.9 °F 22.8 °F 10.0 °F 42% 30.32 in 10.0 mi NW 9.2 mph - N/A   Clear
5:56 PM 30.0 °F 21.7 °F 10.0 °F 43% 30.37 in 10.0 mi NW 9.2 mph - N/A   Clear
6:56 PM 27.0 °F 20.5 °F 10.9 °F 51% 30.40 in 10.0 mi NNW 5.8 mph - N/A   Clear
7:56 PM 26.1 °F 19.4 °F 10.9 °F 53% 30.43 in 10.0 mi NNW 5.8 mph - N/A   Clear
8:56 PM 27.0 °F 19.5 °F 12.0 °F 53% 30.45 in 10.0 mi NW 6.9 mph - N/A   Clear
9:56 PM 26.1 °F 21.9 °F 12.0 °F 55% 30.45 in 10.0 mi NNW 3.5 mph - N/A   Clear
10:56 PM 25.0 °F 19.3 °F 14.0 °F 63% 30.46 in 10.0 mi NNE 4.6 mph - N/A   Mostly Cloudy
11:56 PM 26.1 °F 21.9 °F 16.0 °F 66% 30.48 in 10.0 mi North 3.5 mph - N/A   Overcast